パーカー-ハートレー彗星

119P/Parker-Hartley (2014)

English version
Home page
Updated on September 2, 2011

---------------------------------------------------------------------

・ プロフィール

・ 軌道要素

The following orbital elements are taken from MPC 75718:

Epoch 2014 Apr. 13.0 TT = JDT 2456760.5
T 2014 Apr. 2.5972 TT                                   MPC
q   3.026500             (2000.0)            P               Q
n   0.1113957      Peri.  181.3053      +0.4162702      -0.9055842
a   4.277831       Node   244.1007      +0.8350307      +0.4162100
e   0.292515       Incl.    5.1958      +0.3597817      +0.0817707
P   8.85
From 557 observations 1995-2006, mean residual 0".6.

・ 星図

・ 光度変化

        m1 = 7.5 + 5 logΔ + 15.0 log r

---------------------------------------------------------------------

軌道要素はMPCのEphemerides and Orbital Elementsに掲載されたものです。
星図はステラナビゲータ Ver.8 (アストロアーツ) で作成したものです。
光度グラフはComet for Windowsで作成したものです。

---------------------------------------------------------------------

Copyright(C) Seiichi Yoshida (comet@aerith.net). All rights reserved.